Location: Cruseilles
(46.0333°N, 6.1167°E)
Time: 15:28:51
(UTC+00:00)

Daily predictions for brighter satellites

Satellite Brightness Start Highest point End
(mag) Time Altitude Azimuth Time Altitude Azimuth Time Altitude Azimuth
Meteor 1-27 Rocket 4.1 19:41:18 10° SSE 19:46:52 51° E 19:52:32 10° NNE
Cosmos 1633 Rocket 3.3 19:47:03 10° NNW 19:51:25 72° W 19:55:45 10° S
Cosmos 2219 3.3 19:46:49 10° NNW 19:52:28 82° WSW 19:58:05 10° SSE
SJ 16-02 2.6 19:50:14 10° SSE 19:53:37 22° E 19:57:02 10° NE
H-2A R/B 4.1 19:49:59 10° SSW 19:54:00 36° W 19:57:57 10° NNW
Cosmos 1340 3.0 19:50:55 10° SSE 19:54:29 44° E 19:58:04 10° NNE
Cosmos 1315 Rocket 3.7 19:50:40 10° NNW 19:54:38 51° W 19:58:31 10° S
USA 186 4.2 19:57:03 10° WSW 19:58:11 12° W 19:59:18 10° WNW
Cosmos 2082 3.9 19:53:41 10° NNW 19:59:17 62° ENE 20:04:50 10° SE
OBJECT-B 3.8 19:59:12 10° WSW 20:00:09 11° W 20:01:05 10° WNW
Meteor 1-11 Rocket 3.9 19:54:29 10° N 20:00:31 88° E 20:06:28 10° S
Cosmos 2263 Rocket 3.1 19:57:08 10° NNW 20:02:16 36° NE 20:07:22 10° ESE
Cosmos 1470 Rocket 3.5 19:58:27 10° N 20:02:48 89° ENE 20:07:07 10° S
Ariane Rocket 3.1 20:00:55 10° SSE 20:05:57 71° ENE 20:11:02 10° N
Cosmos 1743 2.7 20:02:16 10° N 20:06:02 67° E 20:09:47 10° SSE
BREEZE-M DEB (TANK) 2.8 20:08:11 10° W 20:11:06 47° NNW 20:13:12 10° ENE
SPOT 5 4.0 20:06:31 10° SE 20:11:10 33° ENE 20:15:43 10° N
IRAS Rocket 4.3 20:06:39 10° NNE 20:12:18 74° ESE 20:17:55 10° S
Terra 3.4 20:09:14 10° ESE 20:12:54 22° ENE 20:16:33 10° NNE
Resurs 01 Rocket 1.8 20:10:18 10° S 20:14:42 74° WSW 20:19:07 10° NNW
Aureole 1 Rocket 2.2 20:13:15 10° SSW 20:16:28 83° WNW 20:19:28 10° NNE
Cosmos 1515 Rocket 3.6 20:12:51 10° S 20:17:12 89° W 20:21:39 10° N
Cosmos 2227 Rocket 3.1 20:14:58 10° NW 20:20:21 45° WSW 20:25:42 10° S
Cosmos 921 Rocket 3.1 20:17:09 10° NNW 20:21:41 72° ENE 20:25:38 13° SSE
SWAS 4.4 20:23:32 10° NNW 20:27:52 83° ENE 20:31:20 15° SSE
Cosmos 1980 Rocket 2.1 20:23:39 10° SSW 20:29:15 73° ESE 20:34:55 10° NNE
CARTOSAT-1 3.5 20:26:14 12° SSE 20:30:08 76° ENE 20:34:28 10° N
Cosmos 1869 Rocket 3.9 20:26:45 10° N 20:31:08 52° ENE 20:34:32 16° SSE
Cosmos 2228 Rocket 3.6 20:29:01 12° SSE 20:32:54 44° E 20:37:14 10° NNE
Cosmos 1464 Rocket 4.1 20:27:45 10° S 20:33:58 82° W 20:40:10 10° N
Cosmos 1378 4.0 20:34:31 18° SE 20:36:31 30° E 20:39:45 10° NNE
Cosmos 2344 3.5 20:29:56 10° SSW 20:37:28 83° SE 20:45:09 10° NE
Cosmos 2322 Rocket 3.7 20:36:17 15° ESE 20:38:11 17° E 20:41:42 10° ENE
Cosmos 1777 Rocket 4.2 20:33:34 10° S 20:38:34 49° ESE 20:43:37 10° NNE
ISS -3.3 20:35:34 10° WNW 20:38:54 59° NNE 20:41:27 16° E
Cosmos 2369 3.8 20:33:18 10° SSW 20:38:56 84° WNW 20:44:39 10° NNE
Spot 2 Rocket 3.7 20:35:42 16° SE 20:39:39 58° ENE 20:44:36 10° N
Cosmos 1354 Rocket 4.0 20:34:29 10° SSW 20:39:45 79° ESE 20:45:05 10° NNE
SPOT 3 Rocket 3.5 20:36:10 13° SSE 20:40:49 90° WSW 20:46:01 10° NNW
Cosmos 773 Rocket 4.0 20:36:06 10° NNW 20:41:22 79° ENE 20:45:19 17° SSE
Cosmos 1536 4.0 20:37:47 10° NNW 20:41:34 40° W 20:45:20 10° SSW
ATLAS 2AS CENTAUR R/B 3.0 20:34:25 10° SSW 20:42:08 66° ESE 20:49:38 10° NE
Okean 1 3.2 20:40:13 10° S 20:44:11 80° E 20:48:14 10° N
Meteor 2-4 Rocket 4.3 20:40:22 15° SSE 20:44:42 41° E 20:49:57 10° NNE
H-2A R/B 4.2 20:42:44 10° N 20:46:12 27° WNW 20:49:39 10° SW
Meteor 1-19 Rocket 4.1 20:40:53 10° S 20:46:17 76° E 20:51:42 10° NNE
Cosmos 1092 Rocket 4.1 20:41:21 10° N 20:47:29 60° ENE 20:52:05 18° SSE
RESURS DK-1 2.3 20:44:02 10° SSW 20:48:06 64° ESE 20:52:12 10° NNE
Cosmos 1697 Rocket 3.9 20:42:51 10° SW 20:48:17 45° WNW 20:53:43 10° NNE
Nadezhda 4 Rocket 4.1 20:42:04 10° N 20:48:19 80° W 20:54:08 12° S
SL-4 R/B 3.5 20:45:50 10° WNW 20:49:41 27° SW 20:52:09 16° S
Meteor 2-14 Rocket 4.4 20:45:10 10° N 20:51:17 88° W 20:56:34 14° S
Cosmos 1634 Rocket 4.3 20:49:58 16° SSE 20:54:43 50° E 21:00:40 10° NNE
ARIANE 5 R/B 3.3 20:53:39 21° SE 20:56:14 42° ENE 21:00:30 10° N
Cosmos 1707 Rocket 4.1 20:54:13 22° SSE 20:56:38 41° E 21:00:47 10° NNE
ATLAS CENTAUR R/B 4.1 20:53:35 10° NNW 20:56:48 17° NNE 20:59:57 10° ENE
Cosmos 44 Rocket 3.4 20:53:52 10° NNW 20:58:34 64° NE 21:01:28 23° SE
Cosmos 2227 4.4 20:58:32 10° NNW 21:04:18 68° ENE 21:07:59 23° SE
Cosmos 158 Rocket 4.0 21:01:04 10° NNW 21:06:13 76° ENE 21:09:24 24° SSE
ATLAS 3B R/B 3.2 21:00:23 10° NW 21:07:39 61° NE 21:13:24 18° ESE
NOSS 2-1 (E) 3.3 21:08:10 35° SE 21:08:23 35° ESE 21:11:22 10° NE
Cosmos 1975 2.8 21:07:28 10° N 21:11:33 78° E 21:13:33 29° SSE
USA 81 4.2 21:09:01 22° SSE 21:12:16 59° E 21:17:28 10° NNE
Cosmos 2026 Rocket 4.0 21:06:34 10° N 21:12:46 80° E 21:17:00 22° SSE
ERS-1 Rocket 3.0 21:12:32 22° S 21:15:48 81° WSW 21:20:53 10° NNW
CZ-4B R/B 4.4 21:15:20 10° NW 21:16:45 12° WNW 21:18:09 10° W
SL-16 R/B 2.5 21:13:28 20° S 21:17:04 48° ESE 21:22:30 10° NE
Meteor 1-4 Rocket 3.8 21:15:51 10° NNE 21:18:49 26° ENE 21:19:36 23° E
CZ-4C R/B 4.5 21:13:20 10° NNW 21:18:59 27° NNE 21:25:30 10° E
Helios 1A Rocket 3.7 21:19:01 19° SSW 21:21:30 44° W 21:25:21 10° NNW
Cosmos 1538 Rocket 4.0 21:16:19 10° NNW 21:21:36 74° ENE 21:24:18 29° SSE
GENESIS II 4.0 21:20:47 19° SSW 21:23:26 68° SE 21:27:20 10° NE
CZ-2C R/B 3.8 21:19:22 10° NNE 21:24:09 85° WNW 21:27:47 18° SSW
Cosmos 1733 Rocket 3.1 21:21:24 10° N 21:25:51 67° E 21:27:44 33° SSE
Meteor 2-8 Rocket 4.4 21:25:01 20° S 21:29:26 82° E 21:35:33 10° N
OE (NEXTSAT) 4.1 21:27:23 10° W 21:30:41 90° S 21:32:08 31° E
EP 1 4.5 21:29:19 26° SSW 21:31:01 78° SE 21:33:49 10° NE
Geosat 4.3 21:28:35 26° SE 21:31:14 57° ENE 21:36:10 10° NNW
SJ 16-02 2.7 21:27:52 10° SW 21:31:56 38° WNW 21:36:03 10° N
Meteor 1-18 Rocket 4.5 21:26:49 12° SSW 21:32:10 68° WNW 21:37:47 10° N
SAR-Lupe-4 3.8 21:29:12 10° NNE 21:32:44 51° E 21:33:21 45° SE
Iridium 45 4.4 21:33:06 40° S 21:34:16 84° W 21:37:46 10° N
Cosmos 1356 4.3 21:35:10 32° E 21:35:10 32° E 21:38:01 10° NNE
Cosmos 2292 Rocket 3.8 21:34:37 10° NNW 21:37:23 35° W 21:38:15 28° SW
Cosmos 2278 4.4 21:32:11 10° SW 21:37:44 56° WNW 21:43:20 10° NNE
Cosmos 1862 Rocket 3.5 21:37:32 35° S 21:39:21 73° E 21:43:51 10° NNE
Cosmos 2360 Rocket 2.9 21:40:43 30° SE 21:42:12 36° ESE 21:47:18 10° NE
BREEZE M DEB (TANK) 4.4 21:38:20 10° WNW 21:43:09 59° SSW 21:55:47 19° SE
Cosmos 1726 3.6 21:41:39 10° NNE 21:44:38 23° ENE 21:45:09 22° E
Meteor 2-15 4.4 21:41:00 21° SSW 21:45:12 84° W 21:51:19 10° N
Cosmos 2263 Rocket 3.1 21:41:05 10° NW 21:46:14 39° WSW 21:49:11 22° SSW
Meteor 1-13 Rocket 4.5 21:44:29 32° SSE 21:46:42 50° E 21:52:02 10° NNE
Cosmos 2266 Rocket 4.5 21:42:31 10° N 21:48:33 47° ENE 21:51:20 29° SE
NOSS 2-1 (C) 3.1 21:46:45 21° SW 21:48:46 66° NW 21:51:59 10° NE
SPOT 5 4.1 21:45:43 18° SSW 21:49:08 37° W 21:53:55 10° NNW
Terra 2.5 21:47:57 26° SSW 21:50:20 48° W 21:54:58 10° NNW
Cosmos 1441 Rocket 3.0 21:51:04 55° S 21:51:47 78° E 21:55:31 10° NNE
Cosmos 1346 Rocket 3.4 21:50:23 25° SW 21:52:30 53° WNW 21:56:27 10° N
SAR-Lupe-1 4.1 21:50:11 10° N 21:53:46 74° WNW 21:54:47 44° SSW
Cosmos 2279 Rocket 4.0 21:53:29 26° S 21:57:13 87° W 22:03:29 10° N
NOSS 2-1 (D) 3.6 21:56:58 17° WSW 21:59:14 50° NW 22:02:24 10° NNE
Cosmos 990 Rocket 3.9 21:57:54 34° S 22:00:09 72° ESE 22:05:24 10° NNE
USA 215 3.6 21:54:48 10° ENE 22:01:00 43° SE 22:03:42 30° S
Cosmos 1680 Rocket 3.9 21:56:08 10° NNW 22:01:22 55° ENE 22:03:26 34° SE
MINOTAUR IV R/B 4.4 22:00:16 41° SSW 22:01:49 79° ESE 22:06:20 10° NNE
Iridium 2 3.8 21:59:55 10° N 22:03:40 68° W 22:04:23 52° SSW
Meteor 1-12 Rocket 4.4 22:00:36 10° N 22:06:32 69° ENE 22:08:54 37° SSE
Cosmos 1066 Rocket 4.2 22:05:06 33° S 22:07:52 87° ESE 22:13:33 10° NNE
ADEOS Rocket 4.4 22:05:31 16° ESE 22:08:40 27° ENE 22:13:34 10° N
Spot 4 4.5 22:07:13 33° ESE 22:08:46 45° ENE 22:13:20 10° N
Cosmos 1818 4.0 22:04:10 10° NNW 22:09:34 56° NE 22:12:08 30° ESE
Iridium 4 Rocket 3.5 22:07:57 10° N 22:12:29 56° E 22:13:44 43° SE
Cosmos 1898 Rocket 3.5 22:11:50 42° S 22:13:31 64° ESE 22:18:47 10° NNE
ISS -1.9 22:12:38 10° W 22:14:21 21° WSW 22:14:21 21° WSW
Okean 1-7 3.0 22:17:25 55° SSE 22:18:11 69° E 22:22:32 10° NNE
Iridium 51 3.8 22:21:01 81° WSW 22:21:05 82° W 22:24:39 10° N
Cosmos 2322 Rocket 2.3 22:18:02 24° SW 22:21:32 76° WNW 22:27:11 10° NNE
Okean 3 3.5 22:25:02 57° SE 22:25:26 61° E 22:29:40 10° NNE
Cosmos 1844 Rocket 2.6 22:20:29 10° NNW 22:26:06 87° WSW 22:27:57 44° SSE
Cosmos 2333 Rocket 2.6 22:25:18 40° SE 22:26:24 45° ESE 22:31:47 10° NE
Cosmos 1805 3.8 22:24:10 10° NNW 22:27:56 48° W 22:28:28 44° WSW
Cosmos 1461 4.5 22:28:18 10° NNW 22:31:59 30° NE 22:33:54 21° E
H-2A R/B 3.8 22:28:21 10° NNE 22:32:18 46° E 22:32:21 46° ESE
BREEZE-M DEB (TANK) 3.1 22:29:44 10° W 22:31:52 39° SW 22:31:52 39° SW
ARIANE 5 R/B 4.5 22:31:11 18° WSW 22:32:52 22° W 22:36:20 10° NW
ATLAS 2AS CENTAUR R/B 4.2 22:26:19 10° WSW 22:33:34 41° NW 22:40:34 10° NNE
Meteor 1-23 Rocket 4.2 22:34:01 43° S 22:35:59 76° E 22:41:50 10° NNE
ATLAS CENTAUR R/B 1.9 22:31:39 10° NNW 22:36:32 67° NE 22:37:50 45° ESE
USA 267 3.8 22:30:20 10° ESE 22:36:41 57° NNE 22:43:05 10° NW
Cosmos 1733 4.3 22:37:35 10° NNW 22:40:59 32° W 22:41:23 31° WSW
Cosmos 1766 3.4 22:39:14 10° NNW 22:43:08 63° W 22:43:23 61° WSW
Cosmos 2219 Rocket 2.4 22:44:47 44° SE 22:45:44 49° ESE 22:51:06 10° NE
Cosmos 1703 Rocket 3.9 22:48:16 48° SW 22:49:14 61° W 22:53:38 10° N
Cosmos 1844 3.8 22:44:02 10° NNW 22:49:49 69° WSW 22:51:27 47° S
Cosmos 372 Rocket 3.9 22:51:17 55° S 22:52:19 72° ESE 22:57:29 10° NNE
Meteor 1-4 Rocket 4.5 22:50:54 10° NW 22:53:29 20° W 22:53:35 20° W
ATLAS 3B R/B 3.7 22:51:30 10° NW 22:58:10 37° WSW 23:00:39 30° SSW
Cosmos 1707 3.1 23:00:36 51° E 23:00:36 51° E 23:04:10 10° NNE
SL-16 R/B 3.8 22:56:22 10° WSW 23:01:22 31° NW 23:06:24 10° N
Cosmos 1655 Rocket 4.4 22:55:49 10° NNW 23:01:51 53° W 23:04:10 35° SW
NOSS 3-1 (A) 4.4 22:54:45 10° NW 23:02:01 61° NE 23:08:57 17° ESE
Cosmos 1782 Rocket 3.7 23:00:05 10° NNW 23:04:23 58° W 23:04:50 55° WSW
Okean 2 4.1 23:06:39 40° E 23:06:39 40° E 23:10:26 10° NNE
ERS-2 2.2 23:03:34 10° NNE 23:06:52 71° NE 23:06:52 71° NE
CZ-4C R/B 3.1 23:01:30 10° NW 23:08:41 73° NE 23:14:17 23° SE
NOSS 3-1 (C) 4.0 23:01:55 10° NW 23:09:25 87° SW 23:14:03 32° SE
USA 290 4.1 23:10:46 23° ENE 23:10:46 23° ENE 23:12:24 10° NE
Cosmos 1238 Rocket 4.1 23:09:59 10° NNE 23:11:57 24° NE 23:11:57 24° NE
Gblst 52 Del rocket 4.5 23:08:15 10° WSW 23:14:40 73° NNW 23:20:23 10° ENE
Cosmos 2237 Rocket 3.6 23:14:56 22° ESE 23:15:38 23° E 23:19:58 10° NE
KORONAS-FOTON 4.4 23:16:49 46° ENE 23:16:49 46° ENE 23:20:10 10° NNE
COSMOS 2428 2.7 23:17:54 51° SSE 23:19:06 64° ESE 23:24:44 10° NNE
Cosmos 1470 2.9 23:15:21 10° NNW 23:19:01 60° W 23:19:01 60° W
Cosmos 1726 3.7 23:16:33 10° NW 23:19:27 25° W 23:19:27 25° W
Cosmos 1300 Rocket 3.4 23:16:12 10° NNW 23:20:33 74° W 23:20:51 70° SW
ALOS 2 2.8 23:22:00 54° WSW 23:22:19 56° W 23:26:39 10° NNW
Cosmos 2151 Rocket 3.9 23:19:04 10° N 23:23:23 54° ENE 23:23:57 50° ESE
PSLV R/B 4.1 23:19:10 10° NNE 23:23:26 45° E 23:23:40 45° ESE
USA 305 4.5 23:26:44 23° E 23:26:44 23° E 23:28:45 10° ENE
Cosmos 1937 Rocket 4.3 23:22:46 28° WSW 23:25:06 46° WNW 23:30:11 10° NNE
Cosmos 2360 Rocket 3.3 23:22:25 18° WSW 23:26:08 40° NW 23:31:27 10° NNE
Cosmos 1242 Rocket 2.8 23:22:53 10° N 23:26:07 66° NNE 23:26:07 66° NNE
Okean 2 Rocket 3.1 23:22:59 10° N 23:27:31 69° E 23:28:05 61° SE
Cosmos 405 Rocket 3.8 23:28:20 33° E 23:28:20 33° E 23:31:25 10° NNE
In-Cosmos 22 4.1 23:29:31 53° S 23:30:55 85° E 23:36:26 10° NNE
Cosmos 1437 Rocket 3.8 23:29:52 10° N 23:33:19 33° ENE 23:33:33 33° E
Nimbus 7 Rocket 4.4 23:28:43 10° NNE 23:34:35 67° ESE 23:36:12 47° SSE
Cosmos 1908 3.5 23:31:08 10° N 23:34:48 59° ENE 23:34:48 59° ENE
Cosmos 1867 3.5 23:33:44 54° SSW 23:35:01 80° ESE 23:40:31 10° NE
Meteor 1-21 4.2 23:34:35 48° SSW 23:36:18 83° W 23:42:09 10° N
Cosmos 1626 2.4 23:37:36 62° NE 23:37:36 62° NE 23:40:52 10° NNE
SL-08 R/B 4.4 23:33:00 10° N 23:39:19 87° E 23:41:27 45° S
USA 215 3.5 23:37:43 10° NE 23:44:13 68° NNW 23:50:43 10° WSW
Cosmos 1953 3.1 23:40:32 10° N 23:44:22 42° ENE 23:44:46 41° E
Cosmos 2278 Rocket 2.5 23:40:39 10° NNW 23:46:18 62° ENE 23:48:51 32° SE
Cosmos 468 4.5 23:42:23 10° NNW 23:47:38 78° ENE 23:49:02 49° SE
Cosmos 1674 2.8 23:50:45 65° WNW 23:50:45 65° WNW 23:54:19 10° N
Sich 1 Rocket 3.9 23:49:28 10° NNW 23:53:44 49° W 23:54:00 49° WSW
ADEOS Rocket 3.1 23:52:27 43° SW 23:53:49 53° W 23:59:40 10° NNW
